TimeAKST,TemperatureF,Dew PointF,Humidity,Sea Level PressureIn,VisibilityMPH,Wind Direction,Wind SpeedMPH,Gust SpeedMPH,PrecipitationIn,Events,Conditions,WindDirDegrees,DateUTC
12:53 AM,-41.1,-9999,N/A,30.25,10.0,Calm,Calm,-,N/A,,Clear,0,2012-12-22 09:53:00
1:53 AM,-41.1,-9999,N/A,30.24,10.0,Calm,Calm,-,N/A,,Clear,0,2012-12-22 10:53:00
3:53 AM,-43.1,-9999,N/A,30.22,10.0,Calm,Calm,-,N/A,,Clear,0,2012-12-22 12:53:00
4:53 AM,-44.0,-9999,N/A,30.20,10.0,Calm,Calm,-,N/A,,Clear,0,2012-12-22 13:53:00
5:53 AM,-43.1,-9999,N/A,30.18,10.0,Calm,Calm,-,N/A,,Clear,0,2012-12-22 14:53:00
6:53 AM,-44.0,-9999,N/A,30.17,10.0,Calm,Calm,-,N/A,,Clear,0,2012-12-22 15:53:00
7:53 AM,-44.0,-9999,N/A,30.16,10.0,Calm,Calm,-,N/A,,Clear,0,2012-12-22 16:53:00
8:53 AM,-45.0,-9999,N/A,30.14,10.0,Calm,Calm,-,N/A,,Clear,0,2012-12-22 17:53:00
9:53 AM,-45.0,-9999,N/A,30.14,10.0,Calm,Calm,-,N/A,,Clear,0,2012-12-22 18:53:00
10:53 AM,-43.1,-9999,N/A,30.12,10.0,Calm,Calm,-,N/A,,Clear,0,2012-12-22 19:53:00
11:53 AM,-43.1,-9999,N/A,30.11,10.0,Calm,Calm,-,N/A,,Scattered Clouds,0,2012-12-22 20:53:00
12:53 PM,-38.0,-9999,N/A,30.08,10.0,Calm,Calm,-,N/A,,Clear,0,2012-12-22 21:53:00
1:53 PM,-35.0,-9999,N/A,30.06,3.0,Calm,Calm,-,N/A,,Clear,0,2012-12-22 22:53:00
2:53 PM,-36.9,-9999,N/A,30.03,10.0,Calm,Calm,-,N/A,,Clear,0,2012-12-22 23:53:00
3:53 PM,-36.9,-9999,N/A,30.01,10.0,Calm,Calm,-,N/A,,Clear,0,2012-12-23 00:53:00
4:53 PM,-31.0,-9999,N/A,30.00,10.0,Calm,Calm,-,N/A,,Clear,0,2012-12-23 01:53:00
5:53 PM,-32.1,-9999,N/A,29.99,10.0,NE,5.8,-,N/A,,Clear,50,2012-12-23 02:53:00
6:53 PM,-6.0,-13.0,72,29.96,10.0,NNE,11.5,-,0.01,,Clear,30,2012-12-23 03:53:00
7:53 PM,-5.1,-13.0,69,29.95,10.0,NNE,9.2,-,N/A,,Clear,30,2012-12-23 04:53:00
8:53 PM,-5.1,-13.0,69,29.95,10.0,NE,10.4,-,N/A,,Clear,50,2012-12-23 05:53:00
9:53 PM,-7.1,-14.1,72,29.94,10.0,NNE,8.1,-,N/A,,Clear,20,2012-12-23 06:53:00
10:53 PM,-8.0,-15.0,71,29.95,10.0,North,6.9,-,N/A,,Clear,10,2012-12-23 07:53:00
11:53 PM,-8.0,-15.0,71,29.94,10.0,North,6.9,-,N/A,,Clear,360,2012-12-23 08:53:00